When you browse on this site, cookies collect data to enhance your experience and personalize the content and advertising you see.
Visit our Privacy Policy to learn more. By continuing to use the site, you agree to this use of cookies and data.

Hourly Weather Lipiga

Today, 3 July, Friday

Time Temperature Precipitation Wind Pressure Humidity
00:00 +16°C° 0 mm 1 mps 743 mmHg 97%
01:00 +16°C° 0 mm 1 mps 743 mmHg 97%
02:00 +16°C° 0 mm 1 mps 743 mmHg 98%
03:00 +16°C° 0 mm 1 mps 743 mmHg 97%
04:00 +17°C° 0 mm 2 mps 744 mmHg 97%
05:00 +17°C° 0 mm 2 mps 744 mmHg 97%
06:00 +19°C° 0 mm 2 mps 744 mmHg 91%
07:00 +20°C° 0 mm 2 mps 744 mmHg 86%
08:00 +22°C° 0 mm 3 mps 745 mmHg 79%
09:00 +24°C° 0 mm 3 mps 745 mmHg 72%
10:00 +25°C° 0 mm 3 mps 745 mmHg 65%
11:00 +26°C° 0 mm 3 mps 745 mmHg 58%
12:00 +26°C° 0.1 mm 3 mps 745 mmHg 60%
13:00 +25°C° 0.1 mm 3 mps 745 mmHg 62%
14:00 +25°C° 0.1 mm 3 mps 745 mmHg 64%
15:00 +24°C° 0.4 mm 3 mps 745 mmHg 72%
16:00 +22°C° 0.4 mm 3 mps 745 mmHg 79%
17:00 +21°C° 0.4 mm 3 mps 745 mmHg 86%
18:00 +20°C° 0.2 mm 2 mps 745 mmHg 89%
19:00 +19°C° 0.2 mm 2 mps 745 mmHg 92%
20:00 +18°C° 0.2 mm 2 mps 745 mmHg 95%
21:00 +18°C° 0.3 mm 2 mps 745 mmHg 96%
22:00 +18°C° 0.3 mm 2 mps 745 mmHg 96%
23:00 +18°C° 0.3 mm 2 mps 745 mmHg 97%

Tomorrow, 4 July, Saturday

Time Temperature Precipitation Wind Pressure Humidity
00:00 +19°C° 1.5 mm 1 mps 745 mmHg 97%
01:00 +18°C° 1.5 mm 1 mps 745 mmHg 98%
02:00 +18°C° 1.5 mm 1 mps 745 mmHg 99%
03:00 +18°C° 3.2 mm 1 mps 745 mmHg 99%
04:00 +18°C° 3.2 mm 1 mps 745 mmHg 99%
05:00 +18°C° 3.2 mm 1 mps 744 mmHg 99%
06:00 +18°C° 0.5 mm 1 mps 744 mmHg 98%
07:00 +19°C° 0.5 mm 1 mps 745 mmHg 97%
08:00 +19°C° 0.5 mm 1 mps 745 mmHg 96%
09:00 +21°C° 0 mm 1 mps 745 mmHg 88%
10:00 +22°C° 0 mm 1 mps 745 mmHg 80%
11:00 +24°C° 0 mm 1 mps 745 mmHg 72%
12:00 +25°C° 0 mm 1 mps 745 mmHg 67%
13:00 +26°C° 0 mm 1 mps 745 mmHg 62%
14:00 +25°C° 0 mm 0 mps 745 mmHg 57%
15:00 +25°C° 0 mm 0 mps 745 mmHg 59%
16:00 +26°C° 0 mm 1 mps 745 mmHg 62%
17:00 +26°C° 0 mm 1 mps 744 mmHg 65%
18:00 +24°C° 0 mm 1 mps 745 mmHg 71%
19:00 +20°C° 0 mm 0 mps 745 mmHg 77%
20:00 +19°C° 0 mm 0 mps 745 mmHg 84%
21:00 +20°C° 0 mm 1 mps 745 mmHg 86%
22:00 +20°C° 0 mm 1 mps 745 mmHg 88%
23:00 +19°C° 0 mm 1 mps 745 mmHg 90%

Day after tomorrow, 5 July, Sunday

Time Temperature Precipitation Wind Pressure Humidity
00:00 +18°C° 0 mm 1 mps 745 mmHg 91%
01:00 +18°C° 0 mm 1 mps 745 mmHg 91%
02:00 +16°C° 0 mm 1 mps 745 mmHg 92%
03:00 +18°C° 0 mm 1 mps 745 mmHg 90%
04:00 +18°C° 0 mm 1 mps 745 mmHg 88%
05:00 +19°C° 0 mm 1 mps 745 mmHg 85%
06:00 +21°C° 0 mm 1 mps 745 mmHg 78%
07:00 +23°C° 0 mm 1 mps 745 mmHg 70%
08:00 +24°C° 0 mm 1 mps 745 mmHg 62%
09:00 +25°C° 0 mm 1 mps 745 mmHg 58%
10:00 +26°C° 0 mm 2 mps 744 mmHg 55%
11:00 +27°C° 0 mm 2 mps 744 mmHg 51%
12:00 +27°C° 0 mm 2 mps 744 mmHg 50%
13:00 +28°C° 0 mm 3 mps 744 mmHg 50%
14:00 +28°C° 0 mm 3 mps 743 mmHg 49%
15:00 +27°C° 0 mm 3 mps 743 mmHg 53%
16:00 +27°C° 0 mm 3 mps 743 mmHg 56%
17:00 +26°C° 0 mm 2 mps 743 mmHg 60%
18:00 +24°C° 0.1 mm 2 mps 743 mmHg 69%
19:00 +22°C° 0.1 mm 1 mps 743 mmHg 78%
20:00 +21°C° 0.1 mm 1 mps 743 mmHg 87%
21:00 +20°C° 0 mm 1 mps 743 mmHg 88%
22:00 +19°C° 0 mm 1 mps 743 mmHg 90%
23:00 +18°C° 0 mm 1 mps 743 mmHg 92%

6 July, Monday

Time Temperature Precipitation Wind Pressure Humidity
00:00 +18°C° 0 mm 1 mps 743 mmHg 93%
01:00 +18°C° 0 mm 1 mps 743 mmHg 94%
02:00 +16°C° 0 mm 2 mps 743 mmHg 95%
03:00 +17°C° 0 mm 2 mps 743 mmHg 94%
04:00 +17°C° 0 mm 2 mps 743 mmHg 93%
05:00 +18°C° 0 mm 2 mps 743 mmHg 92%
06:00 +19°C° 0 mm 2 mps 743 mmHg 85%
07:00 +21°C° 0 mm 3 mps 743 mmHg 78%
08:00 +22°C° 0 mm 3 mps 743 mmHg 71%
09:00 +25°C° 0 mm 3 mps 743 mmHg 67%
10:00 +26°C° 0 mm 4 mps 743 mmHg 62%
11:00 +27°C° 0 mm 4 mps 742 mmHg 57%
12:00 +27°C° 0 mm 4 mps 742 mmHg 58%
13:00 +28°C° 0 mm 5 mps 742 mmHg 58%
14:00 +28°C° 0 mm 5 mps 741 mmHg 58%
15:00 +28°C° 0 mm 5 mps 741 mmHg 61%
16:00 +27°C° 0 mm 5 mps 741 mmHg 64%
17:00 +27°C° 0 mm 4 mps 741 mmHg 66%
18:00 +26°C° 0 mm 4 mps 741 mmHg 72%
19:00 +24°C° 0 mm 3 mps 741 mmHg 78%
20:00 +22°C° 0 mm 3 mps 741 mmHg 84%
21:00 +22°C° 0 mm 3 mps 741 mmHg 85%
22:00 +21°C° 0 mm 3 mps 741 mmHg 85%
23:00 +21°C° 0 mm 3 mps 741 mmHg 85%

7 July, Tuesday

Time Temperature Precipitation Wind Pressure Humidity
00:00 +21°C° 0 mm 3 mps 741 mmHg 85%
01:00 +21°C° 0 mm 3 mps 740 mmHg 84%
02:00 +21°C° 0 mm 3 mps 740 mmHg 83%
03:00 +21°C° 0.2 mm 3 mps 741 mmHg 87%
04:00 +20°C° 0.2 mm 2 mps 741 mmHg 91%
05:00 +20°C° 0.2 mm 2 mps 741 mmHg 94%
06:00 +20°C° 0.2 mm 2 mps 741 mmHg 93%
07:00 +20°C° 0.2 mm 2 mps 741 mmHg 92%
08:00 +20°C° 0.2 mm 2 mps 741 mmHg 91%
09:00 +21°C° 0 mm 2 mps 742 mmHg 83%
10:00 +23°C° 0 mm 2 mps 742 mmHg 74%
11:00 +24°C° 0 mm 2 mps 742 mmHg 66%
12:00 +25°C° 0 mm 2 mps 742 mmHg 60%
13:00 +26°C° 0 mm 2 mps 742 mmHg 55%
14:00 +27°C° 0 mm 2 mps 742 mmHg 50%
15:00 +25°C° 0 mm 2 mps 742 mmHg 55%
16:00 +23°C° 0 mm 2 mps 742 mmHg 61%
17:00 +21°C° 0 mm 2 mps 742 mmHg 67%
18:00 +20°C° 0 mm 2 mps 742 mmHg 70%
19:00 +19°C° 0 mm 2 mps 742 mmHg 73%
20:00 +19°C° 0 mm 1 mps 742 mmHg 76%
21:00 +17°C° 0 mm 2 mps 743 mmHg 76%
22:00 +16°C° 0 mm 2 mps 743 mmHg 76%
23:00 +15°C° 0 mm 2 mps 743 mmHg 76%

8 July, Wednesday

Time Temperature Precipitation Wind Pressure Humidity
00:00 +15°C° 0 mm 2 mps 743 mmHg 79%
01:00 +14°C° 0 mm 2 mps 744 mmHg 82%
02:00 +13°C° 0 mm 2 mps 744 mmHg 84%
03:00 +14°C° 0 mm 2 mps 744 mmHg 83%
04:00 +14°C° 0 mm 2 mps 744 mmHg 83%
05:00 +14°C° 0 mm 1 mps 745 mmHg 82%
06:00 +16°C° 0 mm 2 mps 745 mmHg 75%
07:00 +17°C° 0 mm 2 mps 745 mmHg 67%
08:00 +19°C° 0 mm 2 mps 745 mmHg 60%
09:00 +20°C° 0 mm 2 mps 745 mmHg 56%
10:00 +21°C° 0 mm 2 mps 745 mmHg 52%
11:00 +23°C° 0 mm 2 mps 745 mmHg 48%
12:00 +23°C° 0 mm 2 mps 745 mmHg 47%
13:00 +22°C° 0 mm 3 mps 745 mmHg 46%
14:00 +22°C° 0 mm 3 mps 745 mmHg 45%
15:00 +22°C° 0 mm 3 mps 745 mmHg 47%
16:00 +22°C° 0 mm 3 mps 745 mmHg 49%
17:00 +21°C° 0 mm 3 mps 744 mmHg 51%
18:00 +20°C° 0 mm 2 mps 745 mmHg 58%
19:00 +18°C° 0 mm 2 mps 745 mmHg 65%
20:00 +16°C° 0 mm 2 mps 745 mmHg 73%
21:00 +15°C° 0 mm 2 mps 745 mmHg 76%
22:00 +14°C° 0 mm 2 mps 745 mmHg 80%
23:00 +13°C° 0 mm 2 mps 746 mmHg 83%
Show more